Time,TemperatureF,DewpointF,PressureIn,WindDirection,WindDirectionDegrees,WindSpeedMPH,WindSpeedGustMPH,Humidity,HourlyPrecipIn,Conditions,Clouds,dailyrainin,SoftwareType,DateUTC
2013-03-30 00:02:00,34.1,30.1,30.24,WSW,257,0.0,3.0,85,0.00,,,0.00,VWS V14.01,2013-03-30 04:02:00,
2013-03-30 00:17:00,33.8,29.8,30.24,WSW,242,0.0,3.0,85,0.00,,,0.00,VWS V14.01,2013-03-30 04:17:00,
2013-03-30 00:32:00,33.5,29.8,30.24,WSW,257,0.0,3.0,86,0.00,,,0.00,VWS V14.01,2013-03-30 04:32:00,
2013-03-30 00:47:00,33.3,29.6,30.24,West,264,1.0,3.0,86,0.00,,,0.00,VWS V14.01,2013-03-30 04:47:00,
2013-03-30 01:02:00,33.0,29.3,30.24,West,262,0.0,3.0,86,0.00,,,0.00,VWS V14.01,2013-03-30 05:02:00,
2013-03-30 01:17:00,33.0,29.3,30.23,West,262,0.0,4.0,86,0.00,,,0.00,VWS V14.01,2013-03-30 05:17:00,
2013-03-30 01:32:00,33.2,29.2,30.24,West,263,2.0,3.0,85,0.00,,,0.00,VWS V14.01,2013-03-30 05:32:00,
2013-03-30 01:47:00,33.0,28.7,30.24,West,264,0.0,3.0,84,0.00,,,0.00,VWS V14.01,2013-03-30 05:47:00,
2013-03-30 02:02:00,32.8,28.5,30.24,WNW,295,2.0,3.0,84,0.00,,,0.00,VWS V14.01,2013-03-30 06:02:00,
2013-03-30 02:17:00,32.9,28.3,30.24,WNW,292,2.0,3.0,83,0.00,,,0.00,VWS V14.01,2013-03-30 06:17:00,
2013-03-30 02:32:00,33.0,27.5,30.24,WNW,288,0.0,3.0,80,0.00,,,0.00,VWS V14.01,2013-03-30 06:32:00,
2013-03-30 02:47:00,32.6,27.4,30.24,WNW,288,0.0,3.0,81,0.00,,,0.00,VWS V14.01,2013-03-30 06:47:00,
2013-03-30 03:02:00,32.1,26.9,30.24,WNW,288,0.0,3.0,81,0.00,,,0.00,VWS V14.01,2013-03-30 07:02:00,
2013-03-30 03:17:00,32.0,26.8,30.24,WNW,288,0.0,3.0,81,0.00,,,0.00,VWS V14.01,2013-03-30 07:17:00,
2013-03-30 03:32:00,31.4,26.5,30.24,WNW,288,0.0,2.0,82,0.00,,,0.00,VWS V14.01,2013-03-30 07:32:00,
2013-03-30 03:47:00,30.8,26.3,30.23,WNW,288,0.0,2.0,83,0.00,,,0.00,VWS V14.01,2013-03-30 07:47:00,
2013-03-30 04:02:00,30.8,26.8,30.24,WNW,288,1.0,3.0,85,0.00,,,0.00,VWS V14.01,2013-03-30 08:02:00,
2013-03-30 04:17:00,30.9,26.6,30.23,WNW,288,0.0,2.0,84,0.00,,,0.00,VWS V14.01,2013-03-30 08:17:00,
2013-03-30 04:32:00,31.2,27.2,30.24,West,269,1.0,4.0,85,0.00,,,0.00,VWS V14.01,2013-03-30 08:32:00,
2013-03-30 04:47:00,31.8,26.9,30.24,WSW,254,0.0,4.0,82,0.00,,,0.00,VWS V14.01,2013-03-30 08:47:00,
2013-03-30 05:02:00,31.4,26.2,30.24,WSW,254,0.0,2.0,81,0.00,,,0.00,VWS V14.01,2013-03-30 09:02:00,
2013-03-30 05:17:00,30.7,26.2,30.24,WSW,254,1.0,2.0,83,0.00,,,0.00,VWS V14.01,2013-03-30 09:17:00,
2013-03-30 05:32:00,30.8,26.3,30.24,WSW,256,0.0,3.0,83,0.00,,,0.00,VWS V14.01,2013-03-30 09:32:00,
2013-03-30 05:47:00,30.9,26.4,30.24,WSW,256,0.0,2.0,83,0.00,,,0.00,VWS V14.01,2013-03-30 09:47:00,
2013-03-30 06:02:00,30.7,26.2,30.25,WSW,257,1.0,2.0,83,0.00,,,0.00,VWS V14.01,2013-03-30 10:02:00,
2013-03-30 06:17:00,30.5,26.2,30.25,WSW,256,0.0,3.0,84,0.00,,,0.00,VWS V14.01,2013-03-30 10:17:00,
2013-03-30 06:32:00,30.6,26.4,30.26,WSW,257,0.0,3.0,84,0.00,,,0.00,VWS V14.01,2013-03-30 10:32:00,
2013-03-30 06:47:00,30.0,26.0,30.25,WSW,257,0.0,2.0,85,0.00,,,0.00,VWS V14.01,2013-03-30 10:47:00,
2013-03-30 07:17:00,29.6,25.9,30.26,West,260,0.0,2.0,86,0.00,,,0.00,VWS V14.01,2013-03-30 11:17:00,
2013-03-30 07:32:00,30.6,26.9,30.26,West,260,1.0,4.0,86,0.00,,,0.00,VWS V14.01,2013-03-30 11:32:00,
2013-03-30 07:47:00,31.7,27.7,30.27,West,280,0.0,7.0,85,0.00,,,0.00,VWS V14.01,2013-03-30 11:47:00,
2013-03-30 08:02:00,32.5,28.2,30.27,West,277,0.0,4.0,84,0.00,,,0.00,VWS V14.01,2013-03-30 12:02:00,
2013-03-30 08:17:00,33.7,29.1,30.27,West,281,0.0,4.0,83,0.00,,,0.00,VWS V14.01,2013-03-30 12:17:00,
2013-03-30 08:32:00,35.0,29.8,30.27,WNW,294,2.0,4.0,81,0.00,,,0.00,VWS V14.01,2013-03-30 12:32:00,
2013-03-30 08:47:00,36.2,30.3,30.27,WSW,238,3.0,6.0,79,0.00,,,0.00,VWS V14.01,2013-03-30 12:47:00,
2013-03-30 09:02:00,37.4,30.9,30.27,WNW,287,3.0,6.0,77,0.00,,,0.00,VWS V14.01,2013-03-30 13:02:00,
2013-03-30 09:17:00,38.8,31.2,30.27,WSW,258,0.0,7.0,74,0.00,,,0.00,VWS V14.01,2013-03-30 13:17:00,
2013-03-30 09:32:00,40.1,31.5,30.27,West,273,0.0,6.0,71,0.00,,,0.00,VWS V14.01,2013-03-30 13:32:00,
2013-03-30 09:47:00,40.8,30.0,30.27,West,264,3.0,10.0,65,0.00,,,0.00,VWS V14.01,2013-03-30 13:47:00,
2013-03-30 10:02:00,41.9,31.0,30.27,West,275,0.0,6.0,65,0.00,,,0.00,VWS V14.01,2013-03-30 14:02:00,
2013-03-30 10:17:00,42.9,30.8,30.27,West,264,0.0,8.0,62,0.00,,,0.00,VWS V14.01,2013-03-30 14:17:00,
2013-03-30 10:32:00,43.5,31.4,30.27,WNW,296,3.0,8.0,62,0.00,,,0.00,VWS V14.01,2013-03-30 14:32:00,
2013-03-30 10:47:00,44.5,31.5,30.27,West,259,4.0,7.0,60,0.00,,,0.00,VWS V14.01,2013-03-30 14:47:00,
2013-03-30 11:02:00,45.0,30.7,30.26,WNW,300,2.0,6.0,57,0.00,,,0.00,VWS V14.01,2013-03-30 15:02:00,
2013-03-30 11:17:00,45.9,29.3,30.26,West,279,2.0,8.0,52,0.00,,,0.00,VWS V14.01,2013-03-30 15:17:00,
2013-03-30 11:32:00,47.1,31.3,30.26,WSW,253,3.0,6.0,54,0.00,,,0.00,VWS V14.01,2013-03-30 15:32:00,
2013-03-30 11:47:00,47.5,30.8,30.26,WSW,238,3.0,5.0,52,0.00,,,0.00,VWS V14.01,2013-03-30 15:47:00,
2013-03-30 12:02:00,47.5,28.3,30.26,WNW,301,0.0,11.0,47,0.00,,,0.00,VWS V14.01,2013-03-30 16:02:00,
2013-03-30 12:17:00,47.2,28.5,30.25,WSW,246,2.0,9.0,48,0.00,,,0.00,VWS V14.01,2013-03-30 16:17:00,
2013-03-30 12:32:00,48.1,28.3,30.24,WNW,294,3.0,6.0,46,0.00,,,0.00,VWS V14.01,2013-03-30 16:32:00,
2013-03-30 12:47:00,49.2,30.9,30.24,WNW,287,2.0,6.0,49,0.00,,,0.00,VWS V14.01,2013-03-30 16:47:00,
2013-03-30 13:15:00,48.5,26.5,30.23,WNW,292,3.0,8.0,42,0.00,,,0.00,VWS V14.01,2013-03-30 17:15:00,
2013-03-30 13:47:00,50.9,27.5,30.22,ENE,69,3.0,4.0,40,0.00,,,0.00,VWS V14.01,2013-03-30 17:47:00,
2013-03-30 14:02:00,50.3,28.1,30.22,WNW,291,2.0,11.0,42,0.00,,,0.00,VWS V14.01,2013-03-30 18:02:00,
2013-03-30 14:17:00,50.5,25.9,30.21,WSW,249,2.0,10.0,38,0.00,,,0.00,VWS V14.01,2013-03-30 18:17:00,
2013-03-30 14:32:00,50.6,27.2,30.21,West,260,0.0,8.0,40,0.00,,,0.00,VWS V14.01,2013-03-30 18:32:00,
2013-03-30 14:47:00,52.2,29.8,30.21,SW,214,3.0,6.0,42,0.00,,,0.00,VWS V14.01,2013-03-30 18:47:00,
2013-03-30 15:02:00,52.6,30.2,30.20,West,276,4.0,9.0,42,0.00,,,0.00,VWS V14.01,2013-03-30 19:02:00,
2013-03-30 15:17:00,51.7,27.6,30.20,West,273,3.0,7.0,39,0.00,,,0.00,VWS V14.01,2013-03-30 19:17:00,
2013-03-30 15:32:00,52.4,31.7,30.20,SSW,199,2.0,8.0,45,0.00,,,0.00,VWS V14.01,2013-03-30 19:32:00,
2013-03-30 15:47:00,52.6,28.4,30.19,WNW,284,2.0,12.0,39,0.00,,,0.00,VWS V14.01,2013-03-30 19:47:00,
2013-03-30 16:02:00,51.3,28.4,30.19,NNW,334,0.0,9.0,41,0.00,,,0.00,VWS V14.01,2013-03-30 20:02:00,
2013-03-30 16:17:00,50.1,30.1,30.18,NE,42,0.0,4.0,46,0.00,,,0.00,VWS V14.01,2013-03-30 20:17:00,
2013-03-30 16:32:00,50.7,30.7,30.18,NE,36,3.0,5.0,46,0.00,,,0.00,VWS V14.01,2013-03-30 20:32:00,
2013-03-30 16:47:00,51.0,29.9,30.18,NNE,32,0.0,4.0,44,0.00,,,0.00,VWS V14.01,2013-03-30 20:47:00,
2013-03-30 17:02:00,51.2,30.6,30.17,NE,35,0.0,5.0,45,0.00,,,0.00,VWS V14.01,2013-03-30 21:02:00,
2013-03-30 17:17:00,49.0,27.5,30.17,ENE,78,2.0,7.0,43,0.00,,,0.00,VWS V14.01,2013-03-30 21:17:00,
2013-03-30 17:32:00,50.1,29.0,30.17,NE,43,3.0,7.0,44,0.00,,,0.00,VWS V14.01,2013-03-30 21:32:00,
2013-03-30 17:47:00,50.5,28.3,30.17,ENE,78,0.0,5.0,42,0.00,,,0.00,VWS V14.01,2013-03-30 21:47:00,
2013-03-30 18:02:00,51.3,29.0,30.17,WNW,284,1.0,3.0,42,0.00,,,0.00,VWS V14.01,2013-03-30 22:02:00,
2013-03-30 18:17:00,51.5,27.4,30.17,WNW,296,2.0,4.0,39,0.00,,,0.00,VWS V14.01,2013-03-30 22:17:00,
2013-03-30 18:32:00,50.6,28.4,30.17,SW,228,0.0,5.0,42,0.00,,,0.00,VWS V14.01,2013-03-30 22:32:00,
2013-03-30 18:47:00,49.3,27.8,30.16,West,261,2.0,5.0,43,0.00,,,0.00,VWS V14.01,2013-03-30 22:47:00,
2013-03-30 19:02:00,48.1,28.3,30.17,SW,226,0.0,7.0,46,0.00,,,0.00,VWS V14.01,2013-03-30 23:02:00,
2013-03-30 19:17:00,46.9,26.1,30.17,WSW,251,0.0,6.0,44,0.00,,,0.00,VWS V14.01,2013-03-30 23:17:00,
2013-03-30 19:32:00,46.0,25.9,30.16,WSW,252,0.0,6.0,45,0.00,,,0.00,VWS V14.01,2013-03-30 23:32:00,
2013-03-30 19:47:00,44.7,25.2,30.16,WSW,252,0.0,2.0,46,0.00,,,0.00,VWS V14.01,2013-03-30 23:47:00,
2013-03-30 20:02:00,43.5,25.6,30.16,WSW,252,0.0,0.0,49,0.00,,,0.00,VWS V14.01,2013-03-31 00:02:00,
2013-03-30 20:17:00,42.4,27.8,30.16,WSW,252,0.0,0.0,56,0.00,,,0.00,VWS V14.01,2013-03-31 00:17:00,
2013-03-30 20:32:00,41.4,27.8,30.16,WSW,252,0.0,0.0,58,0.00,,,0.00,VWS V14.01,2013-03-31 00:32:00,
2013-03-30 20:47:00,40.6,28.6,30.16,WSW,252,0.0,0.0,62,0.00,,,0.00,VWS V14.01,2013-03-31 00:47:00,
2013-03-30 21:02:00,39.5,30.9,30.16,WSW,252,0.0,0.0,71,0.00,,,0.00,VWS V14.01,2013-03-31 01:02:00,
2013-03-30 21:17:00,38.2,29.6,30.15,WSW,252,0.0,0.0,71,0.00,,,0.00,VWS V14.01,2013-03-31 01:17:00,
2013-03-30 21:32:00,37.2,29.4,30.15,WSW,252,0.0,0.0,73,0.00,,,0.00,VWS V14.01,2013-03-31 01:32:00,
2013-03-30 21:47:00,36.5,29.3,30.15,WSW,252,0.0,0.0,75,0.00,,,0.00,VWS V14.01,2013-03-31 01:47:00,
2013-03-30 22:02:00,35.9,29.4,30.15,WSW,252,0.0,0.0,77,0.00,,,0.00,VWS V14.01,2013-03-31 02:02:00,
2013-03-30 22:17:00,35.4,28.9,30.14,WSW,252,0.0,0.0,77,0.00,,,0.00,VWS V14.01,2013-03-31 02:17:00,
2013-03-30 22:32:00,34.8,29.0,30.14,WSW,252,0.0,0.0,79,0.00,,,0.00,VWS V14.01,2013-03-31 02:32:00,
2013-03-30 22:47:00,34.5,29.3,30.14,WSW,252,0.0,0.0,81,0.00,,,0.00,VWS V14.01,2013-03-31 02:47:00,
2013-03-30 23:02:00,34.2,28.7,30.13,WSW,252,0.0,0.0,80,0.00,,,0.00,VWS V14.01,2013-03-31 03:02:00,
2013-03-30 23:17:00,35.4,27.3,30.13,SSE,163,2.0,3.0,72,0.00,,,0.00,VWS V14.01,2013-03-31 03:17:00,
2013-03-30 23:32:00,37.6,26.5,30.12,South,178,4.0,5.0,64,0.00,,,0.00,VWS V14.01,2013-03-31 03:32:00,
2013-03-30 23:47:00,38.2,26.3,30.11,SSE,165,2.0,5.0,62,0.00,,,0.00,VWS V14.01,2013-03-31 03:47:00,